Pittsburgh, PA

10:01 PM EST on February 09, 2016 (GMT -0500)
Pittsburgh International

Weather History for KPIT - October, 2013

Change the Weather History Date:

Tuesday, October 15, 2013

  Actual Average Record
Temperature  
Mean Temperature 61 °F 53 °F  
Max Temperature 71 °F 63 °F 87 °F (1897)
Min Temperature 51 °F 43 °F 30 °F (1876)
Degree Days  
Heating Degree Days 4 12  
Month to date heating degree days 39 153  
Since 1 July heating degree days 148 267  
Cooling Degree Days 0 0  
Month to date cooling degree days 36 6  
Year to date cooling degree days 831 734  
Growing Degree Days 11 (Base 50)    
Moisture  
Dew Point 54 °F    
Average Humidity 83    
Maximum Humidity 100    
Minimum Humidity 66    
Precipitation  
Precipitation 0.00 in 0.07 in 3.56 in (1954)
Month to date precipitation 1.15 1.09  
Year to date precipitation 29.22 30.91  
Snow  
Snow 0.00 in 0.00 in T in (1961)
Month to date snowfall 0.0 0.0  
Since 1 July snowfall 0.0 0.0  
Snow Depth 0.00 in    
Sea Level Pressure  
Sea Level Pressure 30.14 in    
Wind  
Wind Speed 3 mph (SSE)    
Max Wind Speed 10 mph    
Max Gust Speed 13 mph    
Visibility 7 miles    
Events Fog    
T = Trace of Precipitation, MM = Missing Value Source: NWS Daily Summary

Daily Weather History Graph

Daily Weather History Graph

Search for Another Location

Airport or City:

Trip Planner

Search our weather history database for the weather conditions in past years. The results will help you decide how hot, cold, wet, or windy it might be!

Date:

Astronomy

Oct. 15, 2013 Rise Set
Actual Time 7:32 AM EDT 6:40 PM EDT
Civil Twilight 7:04 AM EDT 7:07 PM EDT
Nautical Twilight 6:32 AM EDT 7:39 PM EDT
Astronomical Twilight 6:01 AM EDT 8:11 PM EDT
Moon 4:45 PM EDT (10/15) 3:52 AM EDT (10/15)
Length of Visible Light 12h 03m
Length of Day
11h 08m
Waxing Gibbous, 87% of the Moon is Illuminated
Oct 15
Waxing Gibbous
Oct 18
Full
Oct 26
Last Quarter
Nov 3
New
Nov 10
First Quarter

Hourly Weather History & Observations

Time (EDT) Temp. Dew Point Humidity Pressure Visibility Wind Dir Wind Speed Gust Speed Precip Events Conditions
12:51 AM 55.0 °F 52.0 °F 89% 30.25 in 10.0 mi WNW 3.5 mph - N/A   Mostly Cloudy
1:51 AM 55.0 °F 52.0 °F 89% 30.23 in 10.0 mi Calm Calm - N/A   Overcast
2:17 AM 55.4 °F 51.8 °F 88% 30.20 in 10.0 mi Calm Calm - N/A   Scattered Clouds
2:51 AM 55.0 °F 51.1 °F 86% 30.21 in 10.0 mi Calm Calm - N/A   Partly Cloudy
3:51 AM 52.0 °F 50.0 °F 93% 30.18 in 10.0 mi Calm Calm - N/A   Clear
4:51 AM 51.1 °F 48.9 °F 92% 30.18 in 9.0 mi Calm Calm - N/A   Scattered Clouds
5:39 AM 51.8 °F 48.2 °F 88% 30.17 in 3.0 mi Calm Calm - N/A   Mostly Cloudy
5:51 AM 52.0 °F 48.9 °F 89% 30.19 in 3.0 mi Calm Calm - N/A   Mostly Cloudy
6:51 AM 51.1 °F 50.0 °F 96% 30.19 in 1.0 mi Calm Calm - N/A   Mostly Cloudy
7:00 AM 51.8 °F 50.0 °F 94% 30.17 in 0.5 mi Calm Calm - N/A Fog Fog
7:16 AM 51.8 °F 51.8 °F 100% 30.17 in 0.2 mi Calm Calm - N/A Fog Fog
7:29 AM 51.8 °F 51.8 °F 100% 30.17 in 0.2 mi Calm Calm - N/A Fog Fog
7:41 AM 51.8 °F 51.8 °F 100% 30.16 in 0.1 mi Calm Calm - N/A Fog Fog
7:51 AM 53.1 °F 52.0 °F 96% 30.19 in 0.1 mi Calm Calm - N/A Fog Fog
8:51 AM 54.0 °F 53.1 °F 97% 30.20 in 0.1 mi Calm Calm - N/A Fog Fog
9:48 AM 55.4 °F 55.4 °F 100% 30.17 in 0.2 mi Calm Calm - N/A Fog Fog
9:51 AM 55.9 °F 55.0 °F 97% 30.18 in 0.2 mi Calm Calm - N/A Fog Fog
10:38 AM 59.0 °F 55.4 °F 88% 30.16 in 2.0 mi SSE 3.5 mph - N/A   Mostly Cloudy
10:51 AM 60.1 °F 55.9 °F 86% 30.18 in 5.0 mi South 5.8 mph - N/A   Mostly Cloudy
11:51 AM 64.9 °F 55.9 °F 73% 30.15 in 10.0 mi SSE 5.8 mph - N/A   Mostly Cloudy
12:51 PM 66.9 °F 57.9 °F 73% 30.14 in 10.0 mi Variable 3.5 mph - N/A   Overcast
1:51 PM 69.1 °F 57.9 °F 68% 30.11 in 10.0 mi SE 5.8 mph - N/A   Overcast
2:51 PM 70.0 °F 57.9 °F 65% 30.08 in 10.0 mi SE 8.1 mph - N/A   Overcast
3:51 PM 71.1 °F 59.0 °F 66% 30.07 in 10.0 mi SE 6.9 mph - N/A   Overcast
4:51 PM 71.1 °F 59.0 °F 66% 30.06 in 10.0 mi South 6.9 mph - N/A   Overcast
5:51 PM 70.0 °F 59.0 °F 68% 30.05 in 10.0 mi SSE 5.8 mph - N/A   Overcast
6:51 PM 68.0 °F 57.9 °F 70% 30.04 in 10.0 mi SE 4.6 mph - N/A   Overcast
7:51 PM 66.9 °F 57.9 °F 73% 30.04 in 10.0 mi Calm Calm - N/A   Overcast
8:51 PM 66.0 °F 57.9 °F 75% 30.03 in 10.0 mi Calm Calm - N/A   Overcast
9:51 PM 64.0 °F 57.0 °F 78% 30.02 in 10.0 mi SSE 3.5 mph - N/A   Mostly Cloudy
10:51 PM 63.0 °F 55.9 °F 78% 30.01 in 10.0 mi SSE 3.5 mph - N/A   Overcast
11:51 PM 62.1 °F 55.0 °F 78% 30.00 in 10.0 mi SSE 3.5 mph - N/A   Overcast